[[{"header":{"parameterUnit":"m.s-1","parameterCategory":1,"la1":30.2991,"la2":30.254,"lo1":-89.0895,"lo2":-89.0444,"dy":0.0017,"dx":0.0017,"nx":28,"ny":28,"refTime":"2024-04-09T03:00:00:Z","depth":0,"parameterNumber":2,"parameterNumberName":"U-component_of_WINDS"},"data":[0,0,0,0,0,0,0,0,0,0,0,0,0,0,0,0,0,0,0,0,0,0,0,0,0,0,0,0,0,0,0,0,0,0,0,0,0,0,0,0,0,0,0,0,0,0,0,0,0,0,0,0,0,0,0,0,0,0,-5.5364,-5.5365,0,-5.5415,-5.5415,-5.5416,-5.5344,-5.5342,-5.5339,-5.5337,-5.5384,-5.5388,-5.5391,0,0,0,0,0,0,0,0,0,0,0,0,0,-5.5203,-5.5206,-5.5364,-5.5365,-5.5365,-5.5415,-5.5415,-5.5416,-5.5345,-5.5341,-5.5338,-5.5336,-5.5383,-5.5387,-5.5392,0,0,0,0,0,0,0,0,0,0,0,0,0,-5.5265,-5.5207,-5.5364,-5.5336,-5.5334,-5.5414,-5.5415,-5.5416,-5.5345,-5.5341,-5.5338,-5.5334,-5.5382,-5.5387,-5.5392,-5.5502,0,0,-5.5409,-5.5411,0,0,0,0,0,0,0,0,-5.5262,-5.5271,-5.5339,-5.5338,-5.5336,-5.5369,-5.5376,-5.5445,-5.5346,-5.5341,-5.5337,-5.5332,-5.5382,-5.5387,-5.5405,-5.5504,-5.5506,-5.541,-5.5413,-5.5415,-5.5417,0,0,0,0,0,0,0,-5.5257,-5.5268,-5.5384,-5.534,-5.5338,-5.532,-5.5324,-5.5388,-5.5382,-5.5341,-5.5336,-5.5343,-5.538,-5.54,-5.5406,-5.5507,-5.5409,-5.5414,-5.5418,-5.542,-5.5698,-5.5702,0,0,0,0,0,0,-5.5257,-5.5265,-5.5382,-5.5385,-5.5289,-5.5326,-5.5331,-5.5362,-5.5381,-5.538,-5.5346,-5.534,-5.5392,-5.5399,-5.5407,-5.5535,-5.5415,-5.542,-5.5423,-5.5694,-5.5699,-5.5703,0,0,0,0,0,0,-5.5254,-5.5268,-5.538,-5.5324,-5.5337,-5.5332,-5.5368,-5.5365,-5.5385,-5.5385,-5.5383,-5.5367,-5.539,-5.5399,-5.5479,-5.5536,-5.5423,-5.5428,-5.5689,-5.5695,-5.5701,-5.5793,0,0,0,0,0,0,-5.5249,-5.5267,-5.5309,-5.5326,-5.534,-5.5452,-5.5372,-5.5369,-5.5395,-5.5386,-5.5405,-5.5404,-5.5388,-5.5471,-5.5484,-5.5541,-5.5432,-5.5684,-5.5692,-5.5699,-5.5785,-5.5802,-5.5816,0,0,0,0,0,-5.5244,-5.5332,-5.5312,-5.5326,-5.5393,-5.5456,-5.5464,-5.5444,-5.54,-5.5441,-5.5442,-5.5403,-5.5529,-5.548,-5.5494,-5.5554,-5.568,-5.569,-5.5699,-5.5778,-5.5799,-5.5816,0,0,0,0,0,0,-5.532,-5.5334,-5.5311,-5.5408,-5.5432,-5.5444,-5.5495,-5.5467,-5.5502,-5.5493,-5.5466,-5.5471,-5.5556,-5.5563,-5.5509,-5.5661,-5.5597,-5.5609,-5.5652,-5.5672,-5.5687,-5.5682,-5.5436,0,0,0,0,0,-5.5349,-5.5401,-5.5409,-5.5493,-5.5507,-5.55,-5.5526,-5.551,-5.5532,-5.5541,-5.5548,-5.557,-5.5614,-5.5644,-5.5685,-5.5787,-5.5789,-5.5835,-5.5851,-5.5864,-5.5874,-5.5927,-5.5947,-5.5734,-5.5734,-5.5734,0,0,-5.5408,-5.5421,-5.5455,-5.5509,-5.5525,-5.5578,-5.5508,-5.5566,-5.5604,-5.555,-5.5625,-5.5631,-5.5655,-5.5746,-5.5787,-5.5754,-5.5934,-5.5875,-5.5886,-5.5889,-5.5939,-5.5959,-5.5977,-5.574,-5.5739,-5.5738,0,0,-5.5541,-5.5557,-5.5629,-5.5648,-5.5674,-5.5669,-5.5687,-5.5704,-5.5706,-5.5782,-5.5742,-5.5788,-5.5865,-5.5883,-5.5902,-5.6046,-5.6011,-5.606,-5.614,-5.6193,-5.621,-5.6224,-5.6274,-5.6292,-5.6071,-5.6071,-5.6071,0,-5.5609,-5.5688,-5.5669,-5.5731,-5.5755,-5.5711,-5.5783,-5.5801,-5.5839,-5.5857,-5.5821,-5.5918,-5.5931,-5.6025,-5.6061,-5.6079,-5.6097,-5.6056,-5.6209,-5.6224,-5.6237,-5.6284,-5.6303,-5.6077,-5.6076,-5.6076,-5.6075,0,-5.577,-5.5826,-5.588,-5.592,-5.5951,-5.6018,-5.6008,-5.6042,-5.6024,-5.6023,-5.6101,-5.6115,-5.6158,-5.618,-5.6162,-5.6273,-5.6252,-5.6214,-5.6148,-5.6263,-5.6307,-5.6324,-5.6085,-5.6083,-5.6081,-5.608,0,0,-5.5949,-5.598,-5.6,-5.6017,-5.6045,-5.6087,-5.6152,-5.6195,-5.6224,-5.6253,-5.6305,-5.6374,-5.6339,-5.6361,-5.6345,-5.6392,-5.6503,-5.6348,-5.6348,-5.6374,-5.6624,-5.665,-5.6671,-5.6482,-5.6486,-5.6488,-5.6621,0,-5.608,-5.6193,-5.6179,-5.6286,-5.6337,-5.6297,-5.6353,-5.6376,-5.6378,-5.642,-5.6421,-5.6469,-5.642,-5.6433,-5.6478,-5.648,-5.6552,-5.6471,-5.6528,-5.6531,-5.652,-5.6694,-5.6722,-5.6847,-5.6638,-5.6641,-5.6643,0,-5.6247,-5.6283,-5.6396,-5.6417,-5.6438,-5.6489,-5.6528,-5.657,-5.6595,-5.6592,-5.6619,-5.6596,-5.666,-5.6597,-5.6684,-5.6629,-5.6652,-5.6657,-5.6661,-5.6663,-5.6591,-5.6698,-5.6886,-5.6904,-5.667,-5.6668,-5.6666,0,-5.6363,-5.6441,-5.6518,-5.6535,-5.6562,-5.6598,-5.6611,-5.6632,-5.666,-5.6695,-5.6712,-5.6754,-5.6775,-5.6808,-5.6796,-5.6751,-5.6885,-5.6821,-5.6883,-5.6884,-5.691,-5.6908,-5.7102,-5.6931,-5.6931,-5.693,-5.693,0,-5.6509,-5.6579,-5.6571,-5.6618,-5.6696,-5.668,-5.6757,-5.6764,-5.6784,-5.6832,-5.6801,-5.6846,-5.6829,-5.6873,-5.6864,-5.6937,-5.6948,-5.6947,-5.6943,-5.6948,-5.6947,-5.696,-5.6949,-5.6935,-5.6934,-5.6933,-5.6932,0,-5.6649,-5.6648,-5.6729,-5.6749,-5.6756,-5.6812,-5.6828,-5.6872,-5.6873,-5.6933,-5.6946,-5.6947,-5.6997,-5.699,-5.7045,-5.7039,-5.713,-5.7117,-5.7121,-5.7117,-5.7179,-5.7172,-5.7385,-5.7411,-5.7226,-5.7228,-5.7229,0,-5.6741,-5.6794,-5.6821,-5.6851,-5.6867,-5.6916,-5.6945,-5.6932,-5.6963,-5.6997,-5.7037,-5.7085,-5.7122,-5.7204,-5.7208,-5.7251,-5.7237,-5.7309,-5.7243,-5.7246,-5.7235,-5.7231,-5.7235,-5.732,-5.7323,-5.7324,-5.7326,0,-5.6903,-5.69,-5.6943,-5.6987,-5.7022,-5.7056,-5.7085,-5.7112,-5.7102,-5.7138,-5.719,-5.722,-5.7278,-5.7325,-5.7365,-5.7377,-5.7349,-5.7348,-5.7363,-5.7367,-5.7366,-5.7365,-5.7153,-5.7341,-5.734,-5.7339,-5.7338,-5.7337,-5.702,-5.7065,-5.7092,-5.7141,-5.7163,-5.7192,-5.7235,-5.7242,-5.7285,-5.7332,-5.7322,-5.7381,-5.7405,-5.7457,-5.7474,-5.7518,-5.7492,-5.7516,-5.7521,-5.7526,-5.7533,-5.7363,-5.7526,-5.7526,-5.7525,-5.7525,-5.7524,0,-5.7178,-5.7194,-5.724,-5.7283,-5.7322,-5.7297,-5.7329,-5.7362,-5.7415,-5.7441,-5.7479,-5.7539,-5.7586,-5.7595,-5.7639,-5.7673,-5.7662,-5.7685,-5.7681,-5.7683,-5.7555,-5.7535,-5.7694,-5.7694,-5.7694,-5.7694,-5.7694,-5.7694,-5.7264,-5.734,-5.734,-5.7426,-5.7441,-5.7499,-5.752,-5.7546,-5.7567,-5.7636,-5.7675,-5.7682,-5.7701,-5.7747,-5.7789,-5.779,-5.7807,-5.7834,-5.7831,-5.771,-5.7693,-5.7676,-5.7658,-5.7839,-5.7839,-5.7955,-5.7956,-5.7957]},{"header":{"parameterUnit":"m.s-1","parameterCategory":1,"la1":30.2991,"la2":30.254,"lo1":-89.0895,"lo2":-89.0444,"dy":0.0017,"dx":0.0017,"nx":28,"ny":28,"refTime":"2024-04-09T03:00:00:Z","depth":0,"parameterNumber":3,"parameterNumberName":"V-component_of_WINDS"},"data":[0,0,0,0,0,0,0,0,0,0,0,0,0,0,0,0,0,0,0,0,0,0,0,0,0,0,0,0,0,0,0,0,0,0,0,0,0,0,0,0,0,0,0,0,0,0,0,0,0,0,0,0,0,0,0,0,0,0,1.6777,1.6778,0,1.6862,1.6863,1.6864,1.6931,1.6932,1.6933,1.6933,1.7016,1.7018,1.7019,0,0,0,0,0,0,0,0,0,0,0,0,0,1.6672,1.6673,1.6777,1.6778,1.6779,1.6862,1.6863,1.6864,1.6931,1.6932,1.6933,1.6934,1.7016,1.7017,1.7019,0,0,0,0,0,0,0,0,0,0,0,0,0,1.6733,1.6674,1.6777,1.6823,1.6828,1.6861,1.6863,1.6864,1.6931,1.6932,1.6933,1.6934,1.7015,1.7017,1.702,1.7013,0,0,1.7027,1.7028,0,0,0,0,0,0,0,0,1.6729,1.6737,1.6815,1.682,1.6825,1.6887,1.6856,1.6914,1.6931,1.6892,1.6933,1.6935,1.6972,1.6978,1.6992,1.7017,1.7021,1.7027,1.7028,1.7029,1.703,0,0,0,0,0,0,0,1.6725,1.6733,1.681,1.6816,1.6822,1.6839,1.6849,1.6868,1.6925,1.6895,1.69,1.691,1.6975,1.6989,1.6994,1.7022,1.7027,1.7029,1.703,1.7031,1.705,1.7049,0,0,0,0,0,0,1.6714,1.6729,1.6808,1.6813,1.6779,1.684,1.6851,1.6866,1.6925,1.6935,1.6909,1.6913,1.6985,1.6991,1.6997,1.6996,1.7029,1.7032,1.7033,1.7051,1.705,1.7049,0,0,0,0,0,0,1.6712,1.672,1.6804,1.6773,1.6785,1.684,1.6857,1.6867,1.6881,1.6935,1.6946,1.6913,1.6986,1.6994,1.701,1.7,1.7033,1.7035,1.7052,1.7051,1.705,1.6991,0,0,0,0,0,0,1.6708,1.6719,1.6717,1.6772,1.6786,1.6816,1.6857,1.6868,1.6886,1.6892,1.6942,1.6951,1.6987,1.7006,1.7012,1.7003,1.7037,1.7053,1.7052,1.705,1.6994,1.6988,1.6983,0,0,0,0,0,1.6704,1.6696,1.6717,1.6726,1.6785,1.6815,1.6823,1.6866,1.6885,1.6883,1.6919,1.6949,1.7,1.7007,1.7015,1.7006,1.7054,1.7052,1.705,1.6997,1.6989,1.6983,0,0,0,0,0,0,1.6635,1.6704,1.6728,1.6737,1.677,1.6826,1.6826,1.6856,1.6883,1.6887,1.6939,1.6949,1.696,1.6985,1.6992,1.7005,1.7031,1.7031,1.6988,1.6981,1.6976,1.6969,1.7038,0,0,0,0,0,1.6622,1.6641,1.6699,1.6702,1.6717,1.6769,1.6783,1.6814,1.685,1.6864,1.69,1.6932,1.6956,1.697,1.6995,1.6999,1.7012,1.6997,1.6991,1.6986,1.6985,1.6991,1.6986,1.7042,1.7043,1.7043,0,0,1.6593,1.6632,1.6641,1.6689,1.6718,1.6737,1.678,1.6797,1.6812,1.6866,1.6884,1.6912,1.6952,1.6963,1.6969,1.6984,1.6973,1.6984,1.6979,1.6981,1.6989,1.6983,1.6979,1.7041,1.7041,1.7042,0,0,1.655,1.6581,1.6588,1.6618,1.6663,1.6698,1.6699,1.6752,1.6774,1.6793,1.6835,1.6853,1.6892,1.692,1.6939,1.6911,1.6941,1.6918,1.6887,1.6893,1.6888,1.6884,1.6876,1.6872,1.6916,1.6916,1.6916,0,1.6507,1.6538,1.6587,1.6604,1.6624,1.6677,1.6685,1.6711,1.676,1.6773,1.679,1.6842,1.6873,1.6892,1.6886,1.6899,1.6903,1.6911,1.6885,1.6882,1.6879,1.6871,1.6868,1.6913,1.6913,1.6914,1.6914,0,1.6485,1.6506,1.6506,1.6556,1.6577,1.6588,1.6639,1.6655,1.6685,1.6718,1.6739,1.6778,1.6813,1.682,1.6848,1.6844,1.6852,1.6876,1.6903,1.687,1.6864,1.6861,1.6909,1.691,1.6911,1.6911,0,0,1.6398,1.6478,1.6477,1.6502,1.6557,1.6574,1.6589,1.6625,1.6638,1.6671,1.6686,1.672,1.6744,1.6765,1.6798,1.6803,1.6781,1.6827,1.6829,1.6817,1.678,1.6762,1.6757,1.6801,1.6801,1.6801,1.6777,0,1.6364,1.6395,1.6442,1.6457,1.6478,1.6531,1.6545,1.658,1.6612,1.6635,1.667,1.6694,1.6723,1.6737,1.6745,1.6781,1.6774,1.6784,1.6815,1.6815,1.6803,1.6754,1.6734,1.671,1.6775,1.6774,1.6774,0,1.6328,1.6362,1.638,1.6437,1.6448,1.6459,1.6498,1.6518,1.656,1.6584,1.661,1.6647,1.6666,1.6691,1.6719,1.6725,1.6741,1.6761,1.6761,1.6765,1.6792,1.6757,1.6703,1.6699,1.677,1.6771,1.6771,0,1.6264,1.6314,1.6332,1.6351,1.6418,1.6425,1.6453,1.6496,1.6516,1.655,1.6564,1.6598,1.6617,1.6643,1.6688,1.6702,1.6711,1.674,1.6731,1.673,1.673,1.6729,1.6677,1.674,1.674,1.674,1.674,0,1.6221,1.623,1.6305,1.6316,1.6329,1.6383,1.6394,1.6426,1.6465,1.6484,1.6531,1.6547,1.6606,1.6629,1.6664,1.6683,1.6691,1.671,1.6719,1.6706,1.6704,1.6716,1.6719,1.6739,1.6739,1.6739,1.6739,0,1.6151,1.6201,1.6225,1.6288,1.6304,1.631,1.6364,1.6377,1.6414,1.6437,1.6445,1.6502,1.6533,1.6581,1.6624,1.6648,1.6661,1.6676,1.6647,1.6652,1.6641,1.6642,1.6596,1.6593,1.6657,1.6656,1.6655,0,1.612,1.6129,1.6194,1.6211,1.6238,1.6264,1.6286,1.634,1.6361,1.6412,1.6419,1.6454,1.6484,1.653,1.6575,1.6609,1.6626,1.6608,1.6631,1.6618,1.6626,1.6625,1.6627,1.6601,1.66,1.66,1.6599,0,1.6061,1.6086,1.6116,1.6156,1.6181,1.6215,1.625,1.6261,1.6323,1.6344,1.6377,1.6401,1.6448,1.6482,1.6523,1.6552,1.6586,1.6592,1.6592,1.6578,1.6561,1.6571,1.6632,1.6592,1.6593,1.6593,1.6594,1.6594,1.601,1.6022,1.607,1.6103,1.6137,1.617,1.6186,1.6226,1.6255,1.6299,1.6329,1.6361,1.6405,1.6465,1.6492,1.6517,1.6532,1.6531,1.6531,1.653,1.6526,1.6558,1.6525,1.6525,1.6525,1.6525,1.6526,0,1.5954,1.5989,1.6019,1.6069,1.6095,1.6128,1.617,1.6189,1.6217,1.6257,1.6287,1.6326,1.636,1.6409,1.6447,1.6458,1.6475,1.6466,1.6466,1.6472,1.651,1.6507,1.6452,1.6452,1.6452,1.6452,1.6452,1.6452,1.5928,1.595,1.5982,1.6022,1.6056,1.6089,1.611,1.6142,1.6174,1.6216,1.6246,1.6279,1.6322,1.6365,1.6398,1.6411,1.6423,1.641,1.6428,1.6462,1.6469,1.6475,1.6473,1.6412,1.6412,1.6388,1.6388,1.6388]}]]